This is the latest recevied weather packets stored in our database for station/object KQ4UPF. If no packets are shown the sender has not sent any weather packets the latest 10 day(s).
| Time | Temp. | Humidity | Pressure | Rain* | Wind** | Luminosity | Snow |
|---|---|---|---|---|---|---|---|
| 1777569841 | 18.89° C | 59% | 1015.3 hPa | 0 mm | - | 544 W/m² | - |
| 1777569537 | 18.33° C | 56% | 1015.5 hPa | 0 mm | - | 580 W/m² | - |
| 1777569233 | 18.89° C | 57% | 1015.5 hPa | 0 mm | - | 515 W/m² | - |
| 1777568930 | 18.89° C | 58% | 1015.4 hPa | 0 mm | - | 491 W/m² | - |
| 1777568626 | 18.89° C | 57% | 1015.4 hPa | 0 mm | - | 540 W/m² | - |
| 1777568324 | 19.44° C | 56% | 1015.4 hPa | 0 mm | - | 551 W/m² | - |
| 1777568020 | 18.89° C | 55% | 1015.3 hPa | 0 mm | - | 641 W/m² | - |
| 1777567717 | 19.44° C | 59% | 1015.3 hPa | 0 mm | - | 628 W/m² | - |
| 1777567414 | 19.44° C | 55% | 1015.5 hPa | 0 mm | - | 847 W/m² | - |
| 1777567112 | 19.44° C | 55% | 1015.4 hPa | 0 mm | - | 852 W/m² | - |
| 1777566809 | 19.44° C | 57% | 1015.5 hPa | 0 mm | - | 932 W/m² | - |
| 1777566507 | 18.89° C | 57% | 1015.7 hPa | 0 mm | - | 918 W/m² | - |
| 1777566205 | 18.89° C | 56% | 1015.8 hPa | 0 mm | - | 785 W/m² | - |
| 1777565901 | 19.44° C | 60% | 1015.6 hPa | 0 mm | - | 888 W/m² | - |
| 1777565597 | 18.89° C | 56% | 1015.6 hPa | 0 mm | - | 840 W/m² | - |
| 1777565294 | 18.89° C | 57% | 1015.8 hPa | 0 mm | - | 880 W/m² | - |
| 1777564989 | 18.89° C | 64% | 1015.7 hPa | 0 mm | - | 918 W/m² | - |
| 1777564685 | 18.33° C | 65% | 1015.7 hPa | 0 mm | - | 889 W/m² | - |
| 1777564380 | 18.33° C | 59% | 1015.7 hPa | 0 mm | - | 878 W/m² | - |
| 1777564076 | 18.89° C | 58% | 1015.7 hPa | 0 mm | - | 859 W/m² | - |
| 1777563773 | 18.89° C | 61% | 1015.7 hPa | 0 mm | - | 822 W/m² | - |
| 1777563469 | 17.78° C | 62% | 1015.6 hPa | 0 mm | - | 777 W/m² | - |
| 1777563169 | 17.78° C | 62% | 1015.7 hPa | 0 mm | - | 770 W/m² | - |
| 1777562865 | 17.78° C | 65% | 1015.7 hPa | 0 mm | - | 667 W/m² | - |
| 1777562562 | 17.78° C | 65% | 1015.5 hPa | 0 mm | - | 629 W/m² | - |
* Rain latest hour (hover to see other rain measurements)
** Current wind speed in m/s (hover to see current wind gust speed)